Time,TemperatureF,DewpointF,PressureIn,WindDirection,WindDirectionDegrees,WindSpeedMPH,WindSpeedGustMPH,Humidity,HourlyPrecipIn,Conditions,Clouds,dailyrainin,SoftwareType,DateUTC
2013-03-17 00:01:00,66.1,44.2,29.85,WNW,286,5.2,11.7,45,0.00,,CLR,0.00,VWS V14.01,2013-03-17 04:01:00,
2013-03-17 00:04:00,66.0,44.1,29.85,WSW,255,3.9,11.7,45,0.00,,CLR,0.00,VWS V14.01,2013-03-17 04:04:00,
2013-03-17 00:09:00,65.9,44.0,29.85,WSW,246,3.9,9.1,45,0.00,,CLR,0.00,VWS V14.01,2013-03-17 04:09:00,
2013-03-17 00:12:00,65.8,43.9,29.86,SW,229,5.2,9.1,45,0.00,,CLR,0.00,VWS V14.01,2013-03-17 04:12:00,
2013-03-17 00:17:00,65.7,43.8,29.86,SW,228,5.2,10.4,45,0.00,,CLR,0.00,VWS V14.01,2013-03-17 04:17:00,
2013-03-17 00:23:00,65.6,44.3,29.86,WSW,246,3.9,10.4,46,0.00,,CLR,0.00,VWS V14.01,2013-03-17 04:23:00,
2013-03-17 00:28:00,65.3,44.0,29.86,WSW,241,7.8,7.8,46,0.00,,CLR,0.00,VWS V14.01,2013-03-17 04:28:00,
2013-03-17 00:33:00,64.9,44.2,29.86,SW,228,2.6,6.5,47,0.00,,CLR,0.00,VWS V14.01,2013-03-17 04:33:00,
2013-03-17 00:38:00,64.5,43.8,29.86,WSW,244,3.9,5.2,47,0.00,,CLR,0.00,VWS V14.01,2013-03-17 04:38:00,
2013-03-17 00:43:00,64.2,44.1,29.86,WSW,252,3.9,5.2,48,0.00,,CLR,0.00,VWS V14.01,2013-03-17 04:43:00,
2013-03-17 00:48:00,63.9,43.8,29.86,WSW,248,3.9,9.1,48,0.00,,CLR,0.00,VWS V14.01,2013-03-17 04:48:00,
2013-03-17 00:53:00,63.6,44.1,29.86,West,265,3.9,5.2,49,0.00,,CLR,0.00,VWS V14.01,2013-03-17 04:53:00,
2013-03-17 00:58:00,63.2,44.3,29.86,WSW,252,2.6,5.2,50,0.00,,CLR,0.00,VWS V14.01,2013-03-17 04:58:00,
2013-03-17 01:03:00,63.1,44.2,29.86,WSW,239,5.2,5.2,50,0.00,,CLR,0.00,VWS V14.01,2013-03-17 05:03:00,
2013-03-17 01:08:00,63.2,44.3,29.86,SW,219,2.6,6.5,50,0.00,,CLR,0.00,VWS V14.01,2013-03-17 05:08:00,
2013-03-17 01:13:00,63.2,44.3,29.86,WSW,253,2.6,5.2,50,0.00,,CLR,0.00,VWS V14.01,2013-03-17 05:13:00,
2013-03-17 01:19:00,62.9,44.5,29.86,SW,230,6.5,6.5,51,0.00,,CLR,0.00,VWS V14.01,2013-03-17 05:19:00,
2013-03-17 01:24:00,62.8,44.4,29.87,SSW,207,2.6,5.2,51,0.00,,CLR,0.00,VWS V14.01,2013-03-17 05:24:00,
2013-03-17 01:29:00,62.4,44.0,29.87,SW,225,2.6,5.2,51,0.00,,CLR,0.00,VWS V14.01,2013-03-17 05:29:00,
2013-03-17 01:34:00,62.2,44.4,29.87,SW,234,5.2,7.8,52,0.00,,CLR,0.00,VWS V14.01,2013-03-17 05:34:00,
2013-03-17 01:39:00,62.1,44.3,29.87,WSW,247,3.9,7.8,52,0.00,,CLR,0.00,VWS V14.01,2013-03-17 05:39:00,
2013-03-17 01:44:00,61.9,44.1,29.87,SW,228,3.9,5.2,52,0.00,,CLR,0.00,VWS V14.01,2013-03-17 05:44:00,
2013-03-17 01:49:00,61.7,44.4,29.87,SW,236,5.2,5.2,53,0.00,,CLR,0.00,VWS V14.01,2013-03-17 05:49:00,
2013-03-17 01:54:00,61.5,44.2,29.87,SW,235,2.6,5.2,53,0.00,,CLR,0.00,VWS V14.01,2013-03-17 05:54:00,
2013-03-17 01:59:00,61.3,44.0,29.87,SW,235,1.3,3.9,53,0.00,,CLR,0.00,VWS V14.01,2013-03-17 05:59:00,
2013-03-17 02:04:00,61.0,44.2,29.87,SW,235,2.6,2.6,54,0.00,,CLR,0.00,VWS V14.01,2013-03-17 06:04:00,
2013-03-17 02:09:00,60.8,44.1,29.87,SW,235,0.0,3.9,54,0.00,,CLR,0.00,VWS V14.01,2013-03-17 06:09:00,
2013-03-17 02:14:00,60.5,43.8,29.88,SW,235,1.3,5.2,54,0.00,,CLR,0.00,VWS V14.01,2013-03-17 06:14:00,
2013-03-17 02:19:00,60.4,43.7,29.87,SW,235,2.6,5.2,54,0.00,,CLR,0.00,VWS V14.01,2013-03-17 06:19:00,
2013-03-17 02:24:00,60.3,44.1,29.87,SW,226,2.6,5.2,55,0.00,,CLR,0.00,VWS V14.01,2013-03-17 06:24:00,
2013-03-17 02:30:00,60.4,44.2,29.87,SW,231,3.9,3.9,55,0.00,,CLR,0.00,VWS V14.01,2013-03-17 06:30:00,
2013-03-17 02:35:00,60.6,44.4,29.87,SW,230,5.2,5.2,55,0.00,,CLR,0.00,VWS V14.01,2013-03-17 06:35:00,
2013-03-17 02:40:00,60.6,44.4,29.87,SW,231,5.2,5.2,55,0.00,,CLR,0.00,VWS V14.01,2013-03-17 06:40:00,
2013-03-17 02:45:00,60.5,44.3,29.87,WSW,246,2.6,7.8,55,0.00,,CLR,0.00,VWS V14.01,2013-03-17 06:45:00,
2013-03-17 02:50:00,60.8,44.5,29.87,SW,225,5.2,13.0,55,0.00,,CLR,0.00,VWS V14.01,2013-03-17 06:50:00,
2013-03-17 02:55:00,60.9,44.6,29.87,SW,225,3.9,6.5,55,0.00,,CLR,0.00,VWS V14.01,2013-03-17 06:55:00,
2013-03-17 03:00:00,61.0,44.7,29.88,WSW,242,3.9,5.2,55,0.00,,CLR,0.00,VWS V14.01,2013-03-17 07:00:00,
2013-03-17 03:05:00,61.1,44.8,29.87,WSW,250,2.6,6.5,55,0.00,,CLR,0.00,VWS V14.01,2013-03-17 07:05:00,
2013-03-17 03:10:00,61.4,44.6,29.87,West,274,7.8,10.4,54,0.00,,CLR,0.00,VWS V14.01,2013-03-17 07:10:00,
2013-03-17 03:15:00,61.6,44.8,29.87,SW,231,7.8,9.1,54,0.00,,CLR,0.00,VWS V14.01,2013-03-17 07:15:00,
2013-03-17 03:20:00,61.7,44.9,29.87,West,275,1.3,5.2,54,0.00,,CLR,0.00,VWS V14.01,2013-03-17 07:20:00,
2013-03-17 03:25:00,61.5,44.7,29.87,WSW,250,1.3,10.4,54,0.00,,CLR,0.00,VWS V14.01,2013-03-17 07:25:00,
2013-03-17 03:30:00,61.5,44.7,29.87,West,262,5.2,10.4,54,0.00,,CLR,0.00,VWS V14.01,2013-03-17 07:30:00,
2013-03-17 03:35:00,61.3,45.0,29.87,West,265,9.1,10.4,55,0.00,,CLR,0.00,VWS V14.01,2013-03-17 07:35:00,
2013-03-17 03:40:00,61.2,44.9,29.86,SW,222,3.9,6.5,55,0.00,,CLR,0.00,VWS V14.01,2013-03-17 07:40:00,
2013-03-17 03:46:00,61.0,44.7,29.86,SW,232,3.9,10.4,55,0.00,,CLR,0.00,VWS V14.01,2013-03-17 07:46:00,
2013-03-17 03:51:00,60.9,44.6,29.86,WSW,256,13.0,13.0,55,0.00,,CLR,0.00,VWS V14.01,2013-03-17 07:51:00,
2013-03-17 03:57:00,60.8,44.5,29.86,SW,234,6.5,13.0,55,0.00,,CLR,0.00,VWS V14.01,2013-03-17 07:57:00,
2013-03-17 04:02:00,60.9,45.1,29.86,WSW,238,7.8,9.1,56,0.00,,CLR,0.00,VWS V14.01,2013-03-17 08:02:00,
2013-03-17 04:07:00,60.9,45.1,29.86,SW,235,9.1,9.1,56,0.00,,CLR,0.00,VWS V14.01,2013-03-17 08:07:00,
2013-03-17 04:12:00,60.9,45.1,29.86,SW,231,5.2,11.7,56,0.00,,CLR,0.00,VWS V14.01,2013-03-17 08:12:00,
2013-03-17 04:17:00,60.8,45.0,29.86,WSW,243,3.9,9.1,56,0.00,,CLR,0.00,VWS V14.01,2013-03-17 08:17:00,
2013-03-17 04:22:00,60.5,44.7,29.86,SW,236,3.9,11.7,56,0.00,,CLR,0.00,VWS V14.01,2013-03-17 08:22:00,
2013-03-17 04:27:00,60.3,45.0,29.85,SW,225,3.9,6.5,57,0.00,,CLR,0.00,VWS V14.01,2013-03-17 08:27:00,
2013-03-17 04:32:00,60.0,44.7,29.85,SW,236,0.0,3.9,57,0.00,,CLR,0.00,VWS V14.01,2013-03-17 08:32:00,
2013-03-17 04:37:00,59.7,44.5,29.85,SW,236,1.3,3.9,57,0.00,,CLR,0.00,VWS V14.01,2013-03-17 08:37:00,
2013-03-17 04:43:00,59.6,44.8,29.85,SW,236,2.6,3.9,58,0.00,,CLR,0.00,VWS V14.01,2013-03-17 08:43:00,
2013-03-17 04:48:00,59.5,44.7,29.85,SW,236,1.3,11.7,58,0.00,,CLR,0.00,VWS V14.01,2013-03-17 08:48:00,
2013-03-17 04:53:00,59.5,44.7,29.85,SSW,209,3.9,5.2,58,0.00,,CLR,0.00,VWS V14.01,2013-03-17 08:53:00,
2013-03-17 04:58:00,59.7,44.9,29.85,SW,224,3.9,11.7,58,0.00,,CLR,0.00,VWS V14.01,2013-03-17 08:58:00,
2013-03-17 05:03:00,60.0,45.2,29.84,WSW,239,10.4,10.4,58,0.00,,CLR,0.00,VWS V14.01,2013-03-17 09:03:00,
2013-03-17 05:08:00,60.3,45.0,29.85,WSW,245,11.7,11.7,57,0.00,,CLR,0.00,VWS V14.01,2013-03-17 09:08:00,
2013-03-17 05:13:00,60.4,45.1,29.85,SW,226,3.9,9.1,57,0.00,,CLR,0.00,VWS V14.01,2013-03-17 09:13:00,
2013-03-17 05:18:00,60.5,45.2,29.85,SW,227,1.3,7.8,57,0.00,,CLR,0.00,VWS V14.01,2013-03-17 09:18:00,
2013-03-17 05:23:00,60.3,45.0,29.85,WSW,238,2.6,9.1,57,0.00,,CLR,0.00,VWS V14.01,2013-03-17 09:23:00,
2013-03-17 05:28:00,59.9,44.7,29.85,SW,222,5.2,10.4,57,0.00,,CLR,0.00,VWS V14.01,2013-03-17 09:28:00,
2013-03-17 05:33:00,59.4,44.6,29.85,SW,216,3.9,10.4,58,0.00,,CLR,0.00,VWS V14.01,2013-03-17 09:33:00,
2013-03-17 05:38:00,59.0,44.7,29.85,SW,224,5.2,7.8,59,0.00,,CLR,0.00,VWS V14.01,2013-03-17 09:38:00,
2013-03-17 05:43:00,58.9,44.6,29.86,West,271,9.1,9.1,59,0.00,,CLR,0.00,VWS V14.01,2013-03-17 09:43:00,
2013-03-17 05:48:00,58.5,44.7,29.86,SSW,209,1.3,5.2,60,0.00,,CLR,0.00,VWS V14.01,2013-03-17 09:48:00,
2013-03-17 05:53:00,58.3,44.5,29.86,SW,225,3.9,7.8,60,0.00,,CLR,0.00,VWS V14.01,2013-03-17 09:53:00,
2013-03-17 05:58:00,58.3,44.5,29.86,SSW,211,2.6,5.2,60,0.00,,CLR,0.00,VWS V14.01,2013-03-17 09:58:00,
2013-03-17 06:04:00,58.2,44.8,29.86,SW,221,2.6,6.5,61,0.00,,CLR,0.00,VWS V14.01,2013-03-17 10:04:00,
2013-03-17 06:09:00,58.1,44.7,29.86,WSW,241,0.0,6.5,61,0.00,,CLR,0.00,VWS V14.01,2013-03-17 10:09:00,
2013-03-17 06:14:00,57.9,44.5,29.86,SW,229,1.3,5.2,61,0.00,,CLR,0.00,VWS V14.01,2013-03-17 10:14:00,
2013-03-17 06:19:00,57.6,44.7,29.87,SW,226,2.6,3.9,62,0.00,,CLR,0.00,VWS V14.01,2013-03-17 10:19:00,
2013-03-17 06:24:00,57.3,44.4,29.87,SW,226,1.3,5.2,62,0.00,,CLR,0.00,VWS V14.01,2013-03-17 10:24:00,
2013-03-17 06:29:00,57.2,44.7,29.87,WSW,253,0.0,6.5,63,0.00,,CLR,0.00,VWS V14.01,2013-03-17 10:29:00,
2013-03-17 06:34:00,56.9,44.5,29.87,SE,129,0.0,2.6,63,0.00,,CLR,0.00,VWS V14.01,2013-03-17 10:34:00,
2013-03-17 06:39:00,56.5,44.5,29.87,SE,129,0.0,2.6,64,0.00,,CLR,0.00,VWS V14.01,2013-03-17 10:39:00,
2013-03-17 06:44:00,55.9,44.3,29.87,SE,129,1.3,2.6,65,0.00,,CLR,0.00,VWS V14.01,2013-03-17 10:44:00,
2013-03-17 06:49:00,55.6,44.4,29.87,SE,129,1.3,1.3,66,0.00,,CLR,0.00,VWS V14.01,2013-03-17 10:49:00,
2013-03-17 06:55:00,55.3,44.2,29.88,SE,129,0.0,2.6,66,0.00,,CLR,0.00,VWS V14.01,2013-03-17 10:55:00,
2013-03-17 07:00:00,55.0,44.3,29.87,SW,228,0.0,3.9,67,0.00,,CLR,0.00,VWS V14.01,2013-03-17 11:00:00,
2013-03-17 07:05:00,55.0,44.3,29.88,SW,229,0.0,5.2,67,0.00,,CLR,0.00,VWS V14.01,2013-03-17 11:05:00,
2013-03-17 07:10:00,55.0,44.3,29.88,SW,229,0.0,3.9,67,0.00,,CLR,0.00,VWS V14.01,2013-03-17 11:10:00,
2013-03-17 07:15:00,54.9,44.2,29.88,SE,128,0.0,2.6,67,0.00,,CLR,0.00,VWS V14.01,2013-03-17 11:15:00,
2013-03-17 07:20:00,54.8,44.1,29.88,WSW,257,1.3,2.6,67,0.00,,CLR,0.00,VWS V14.01,2013-03-17 11:20:00,
2013-03-17 07:25:00,54.8,44.1,29.88,South,174,0.0,2.6,67,0.00,,CLR,0.00,VWS V14.01,2013-03-17 11:25:00,
2013-03-17 07:30:00,54.9,44.2,29.89,SW,229,2.6,6.5,67,0.00,,CLR,0.00,VWS V14.01,2013-03-17 11:30:00,
2013-03-17 07:35:00,55.4,44.2,29.89,WSW,245,1.3,9.1,66,0.00,,CLR,0.00,VWS V14.01,2013-03-17 11:35:00,
2013-03-17 07:40:00,55.6,44.4,29.89,SW,234,1.3,3.9,66,0.00,,CLR,0.00,VWS V14.01,2013-03-17 11:40:00,
2013-03-17 07:45:00,55.8,44.6,29.89,West,260,7.8,10.4,66,0.00,,CLR,0.00,VWS V14.01,2013-03-17 11:45:00,
2013-03-17 07:51:00,56.0,44.4,29.89,West,269,2.6,10.4,65,0.00,,CLR,0.00,VWS V14.01,2013-03-17 11:51:00,
2013-03-17 07:56:00,56.0,44.4,29.89,SSW,198,1.3,5.2,65,0.00,,CLR,0.00,VWS V14.01,2013-03-17 11:56:00,
2013-03-17 08:01:00,56.0,44.4,29.90,SE,144,1.3,13.0,65,0.00,,CLR,0.00,VWS V14.01,2013-03-17 12:01:00,
2013-03-17 08:07:00,56.2,44.6,29.90,West,264,7.8,11.7,65,0.00,,CLR,0.00,VWS V14.01,2013-03-17 12:07:00,
2013-03-17 08:12:00,56.2,44.6,29.90,SSW,192,3.9,11.7,65,0.00,,CLR,0.00,VWS V14.01,2013-03-17 12:12:00,
2013-03-17 08:17:00,56.2,44.6,29.90,WSW,255,3.9,7.8,65,0.00,,CLR,0.00,VWS V14.01,2013-03-17 12:17:00,
2013-03-17 08:22:00,56.2,44.6,29.90,West,266,2.6,7.8,65,0.00,,CLR,0.00,VWS V14.01,2013-03-17 12:22:00,
2013-03-17 08:27:00,56.2,45.0,29.90,SSW,201,1.3,3.9,66,0.00,,CLR,0.00,VWS V14.01,2013-03-17 12:27:00,
2013-03-17 08:32:00,56.2,44.6,29.90,WSW,241,2.6,10.4,65,0.00,,CLR,0.00,VWS V14.01,2013-03-17 12:32:00,
2013-03-17 08:37:00,56.3,45.1,29.90,South,190,1.3,3.9,66,0.00,,CLR,0.00,VWS V14.01,2013-03-17 12:37:00,
2013-03-17 08:42:00,56.4,44.8,29.90,South,186,2.6,6.5,65,0.00,,CLR,0.00,VWS V14.01,2013-03-17 12:42:00,
2013-03-17 08:47:00,56.7,45.1,29.90,SSW,200,0.0,3.9,65,0.00,,CLR,0.00,VWS V14.01,2013-03-17 12:47:00,
2013-03-17 08:52:00,57.1,45.5,29.90,SW,230,5.2,14.3,65,0.00,,CLR,0.00,VWS V14.01,2013-03-17 12:52:00,
2013-03-17 08:58:00,57.4,45.3,29.90,WSW,238,6.5,10.4,64,0.00,,CLR,0.00,VWS V14.01,2013-03-17 12:58:00,
2013-03-17 09:03:00,57.7,45.6,29.90,West,277,1.3,7.8,64,0.00,,CLR,0.00,VWS V14.01,2013-03-17 13:03:00,
2013-03-17 09:08:00,58.0,45.9,29.90,West,279,3.9,3.9,64,0.00,,CLR,0.00,VWS V14.01,2013-03-17 13:08:00,
2013-03-17 09:13:00,58.2,45.7,29.90,South,186,0.0,7.8,63,0.00,,CLR,0.00,VWS V14.01,2013-03-17 13:13:00,
2013-03-17 09:18:00,58.6,45.6,29.91,West,275,13.0,14.3,62,0.00,,CLR,0.00,VWS V14.01,2013-03-17 13:18:00,
2013-03-17 09:23:00,58.9,45.9,29.91,WSW,254,5.2,6.5,62,0.00,,CLR,0.00,VWS V14.01,2013-03-17 13:23:00,
2013-03-17 09:28:00,59.3,46.3,29.91,WSW,244,6.5,6.5,62,0.00,,CLR,0.00,VWS V14.01,2013-03-17 13:28:00,
2013-03-17 09:33:00,59.5,46.1,29.91,NW,309,2.6,14.3,61,0.00,,CLR,0.00,VWS V14.01,2013-03-17 13:33:00,
2013-03-17 09:38:00,59.9,46.4,29.91,WSW,258,3.9,5.2,61,0.00,,CLR,0.00,VWS V14.01,2013-03-17 13:38:00,
2013-03-17 09:43:00,60.2,46.7,29.91,WSW,237,9.1,13.0,61,0.00,,CLR,0.00,VWS V14.01,2013-03-17 13:43:00,
2013-03-17 09:48:00,60.4,46.5,29.91,WSW,240,14.3,16.9,60,0.00,,CLR,0.00,VWS V14.01,2013-03-17 13:48:00,
2013-03-17 09:53:00,60.4,46.9,29.91,WSW,242,14.3,16.9,61,0.00,,CLR,0.00,VWS V14.01,2013-03-17 13:53:00,
2013-03-17 09:58:00,60.7,46.8,29.91,WNW,300,9.1,18.2,60,0.00,,CLR,0.00,VWS V14.01,2013-03-17 13:58:00,
2013-03-17 10:03:00,61.1,47.1,29.91,SW,217,10.4,15.6,60,0.00,,CLR,0.00,VWS V14.01,2013-03-17 14:03:00,
2013-03-17 10:08:00,61.5,47.5,29.92,SSE,155,2.6,14.3,60,0.00,,CLR,0.00,VWS V14.01,2013-03-17 14:08:00,
2013-03-17 10:14:00,62.5,48.0,29.92,WSW,238,5.2,14.3,59,0.00,,CLR,0.00,VWS V14.01,2013-03-17 14:14:00,
2013-03-17 10:19:00,62.7,47.7,29.92,West,260,16.9,16.9,58,0.00,,CLR,0.00,VWS V14.01,2013-03-17 14:19:00,
2013-03-17 10:24:00,63.1,48.1,29.91,WSW,239,5.2,13.0,58,0.00,,CLR,0.00,VWS V14.01,2013-03-17 14:24:00,
2013-03-17 10:29:00,63.9,48.8,29.91,WNW,288,3.9,10.4,58,0.00,,CLR,0.00,VWS V14.01,2013-03-17 14:29:00,
2013-03-17 10:34:00,64.6,48.6,29.91,WSW,249,11.7,16.9,56,0.00,,CLR,0.00,VWS V14.01,2013-03-17 14:34:00,
2013-03-17 10:39:00,64.9,48.8,29.91,West,265,11.7,15.6,56,0.00,,CLR,0.00,VWS V14.01,2013-03-17 14:39:00,
2013-03-17 10:44:00,65.6,49.0,29.91,WSW,244,5.2,13.0,55,0.00,,CLR,0.00,VWS V14.01,2013-03-17 14:44:00,
2013-03-17 10:49:00,66.0,49.4,29.91,SW,230,6.5,15.6,55,0.00,,CLR,0.00,VWS V14.01,2013-03-17 14:49:00,
2013-03-17 10:54:00,66.1,49.0,29.91,SW,229,3.9,18.2,54,0.00,,CLR,0.00,VWS V14.01,2013-03-17 14:54:00,
2013-03-17 10:59:00,66.5,49.8,29.91,WSW,249,6.5,15.6,55,0.00,,CLR,0.00,VWS V14.01,2013-03-17 14:59:00,
2013-03-17 11:04:00,67.3,49.6,29.91,SSW,192,5.2,13.0,53,0.00,,CLR,0.00,VWS V14.01,2013-03-17 15:04:00,
2013-03-17 11:09:00,67.8,50.1,29.91,SSW,207,11.7,14.3,53,0.00,,CLR,0.00,VWS V14.01,2013-03-17 15:09:00,
2013-03-17 11:14:00,67.6,49.4,29.91,West,265,11.7,16.9,52,0.00,,CLR,0.00,VWS V14.01,2013-03-17 15:14:00,
2013-03-17 11:20:00,67.9,50.2,29.91,WSW,250,9.1,16.9,53,0.00,,CLR,0.00,VWS V14.01,2013-03-17 15:20:00,
2013-03-17 11:25:00,68.0,50.2,29.91,SW,229,10.4,13.0,53,0.00,,CLR,0.00,VWS V14.01,2013-03-17 15:25:00,
2013-03-17 11:30:00,69.0,50.7,29.90,WSW,251,10.4,14.3,52,0.00,,CLR,0.00,VWS V14.01,2013-03-17 15:30:00,
2013-03-17 11:35:00,69.5,51.1,29.91,WSW,248,15.6,16.9,52,0.00,,CLR,0.00,VWS V14.01,2013-03-17 15:35:00,
2013-03-17 11:40:00,69.8,50.3,29.90,SSW,211,9.1,16.9,50,0.00,,CLR,0.00,VWS V14.01,2013-03-17 15:40:00,
2013-03-17 11:45:00,69.6,50.7,29.90,SSW,203,10.4,14.3,51,0.00,,CLR,0.00,VWS V14.01,2013-03-17 15:45:00,
2013-03-17 11:50:00,69.9,51.0,29.90,West,265,5.2,14.3,51,0.00,,CLR,0.00,VWS V14.01,2013-03-17 15:50:00,
2013-03-17 11:55:00,70.4,50.9,29.90,SE,140,3.9,13.0,50,0.00,,CLR,0.00,VWS V14.01,2013-03-17 15:55:00,
2013-03-17 12:00:00,70.8,50.7,29.90,WSW,245,18.2,18.2,49,0.00,,CLR,0.00,VWS V14.01,2013-03-17 16:00:00,
2013-03-17 12:05:00,70.8,50.7,29.90,South,181,5.2,15.6,49,0.00,,CLR,0.00,VWS V14.01,2013-03-17 16:05:00,
2013-03-17 12:10:00,71.1,50.4,29.91,WSW,257,10.4,16.9,48,0.00,,CLR,0.00,VWS V14.01,2013-03-17 16:10:00,
2013-03-17 12:16:00,71.0,50.9,29.90,SSW,197,7.8,13.0,49,0.00,,CLR,0.00,VWS V14.01,2013-03-17 16:16:00,
2013-03-17 12:22:00,71.2,51.1,29.90,South,178,1.3,10.4,49,0.00,,CLR,0.00,VWS V14.01,2013-03-17 16:22:00,
2013-03-17 12:27:00,71.3,50.6,29.90,WSW,250,11.7,16.9,48,0.00,,CLR,0.00,VWS V14.01,2013-03-17 16:27:00,
2013-03-17 12:33:00,71.1,51.5,29.90,West,262,3.9,11.7,50,0.00,,CLR,0.00,VWS V14.01,2013-03-17 16:33:00,
2013-03-17 12:38:00,71.7,51.5,29.90,SW,235,15.6,15.6,49,0.00,,CLR,0.00,VWS V14.01,2013-03-17 16:38:00,
2013-03-17 12:43:00,71.5,51.4,29.89,WNW,294,3.9,7.8,49,0.00,,CLR,0.00,VWS V14.01,2013-03-17 16:43:00,
2013-03-17 12:48:00,71.6,50.9,29.89,WSW,257,3.9,11.7,48,0.00,,CLR,0.00,VWS V14.01,2013-03-17 16:48:00,
2013-03-17 12:53:00,71.6,50.9,29.89,WSW,238,1.3,3.9,48,0.00,,CLR,0.00,VWS V14.01,2013-03-17 16:53:00,
2013-03-17 12:58:00,72.4,51.6,29.89,West,275,3.9,10.4,48,0.00,,CLR,0.00,VWS V14.01,2013-03-17 16:58:00,
2013-03-17 13:03:00,72.8,51.4,29.89,SW,232,5.2,11.7,47,0.00,,CLR,0.00,VWS V14.01,2013-03-17 17:03:00,
2013-03-17 13:08:00,72.9,52.1,29.88,South,191,14.3,14.3,48,0.00,,CLR,0.00,VWS V14.01,2013-03-17 17:08:00,
2013-03-17 13:13:00,73.1,51.7,29.88,South,184,3.9,11.7,47,0.00,,CLR,0.00,VWS V14.01,2013-03-17 17:13:00,
2013-03-17 13:18:00,73.2,51.2,29.88,West,281,3.9,9.1,46,0.00,,CLR,0.00,VWS V14.01,2013-03-17 17:18:00,
2013-03-17 13:23:00,73.7,52.2,29.88,West,259,2.6,7.8,47,0.00,,CLR,0.00,VWS V14.01,2013-03-17 17:23:00,
2013-03-17 13:28:00,74.2,51.5,29.87,SSE,149,5.2,7.8,45,0.00,,CLR,0.00,VWS V14.01,2013-03-17 17:28:00,
2013-03-17 13:33:00,73.5,50.9,29.87,SSW,194,2.6,15.6,45,0.00,,CLR,0.00,VWS V14.01,2013-03-17 17:33:00,
2013-03-17 13:38:00,73.1,51.1,29.87,SSW,202,2.6,7.8,46,0.00,,CLR,0.00,VWS V14.01,2013-03-17 17:38:00,
2013-03-17 13:44:00,73.4,50.8,29.87,West,259,7.8,13.0,45,0.00,,CLR,0.00,VWS V14.01,2013-03-17 17:44:00,
2013-03-17 13:49:00,74.1,50.8,29.86,South,179,2.6,6.5,44,0.00,,CLR,0.00,VWS V14.01,2013-03-17 17:49:00,
2013-03-17 13:54:00,74.3,51.6,29.87,SW,217,6.5,13.0,45,0.00,,CLR,0.00,VWS V14.01,2013-03-17 17:54:00,
2013-03-17 13:59:00,74.5,51.2,29.86,SSW,198,7.8,9.1,44,0.00,,CLR,0.00,VWS V14.01,2013-03-17 17:59:00,
2013-03-17 14:04:00,74.5,50.6,29.86,SW,234,6.5,14.3,43,0.00,,CLR,0.00,VWS V14.01,2013-03-17 18:04:00,
2013-03-17 14:09:00,74.4,49.8,29.86,West,275,5.2,18.2,42,0.00,,CLR,0.00,VWS V14.01,2013-03-17 18:09:00,
2013-03-17 14:14:00,74.9,50.9,29.85,SW,224,10.4,15.6,43,0.00,,CLR,0.00,VWS V14.01,2013-03-17 18:14:00,
2013-03-17 14:19:00,74.6,50.7,29.85,West,271,9.1,14.3,43,0.00,,CLR,0.00,VWS V14.01,2013-03-17 18:19:00,
2013-03-17 14:24:00,74.8,50.2,29.85,South,180,10.4,14.3,42,0.00,,CLR,0.00,VWS V14.01,2013-03-17 18:24:00,
2013-03-17 14:29:00,75.0,51.0,29.85,West,259,5.2,15.6,43,0.00,,CLR,0.00,VWS V14.01,2013-03-17 18:29:00,
2013-03-17 14:34:00,74.9,52.2,29.85,SSW,198,7.8,11.7,45,0.00,,CLR,0.00,VWS V14.01,2013-03-17 18:34:00,
2013-03-17 14:39:00,74.4,51.7,29.85,WSW,251,16.9,19.5,45,0.00,,CLR,0.00,VWS V14.01,2013-03-17 18:39:00,
2013-03-17 14:44:00,74.5,52.4,29.85,SSE,164,7.8,14.3,46,0.00,,CLR,0.00,VWS V14.01,2013-03-17 18:44:00,
2013-03-17 14:49:00,74.3,51.6,29.84,SW,219,11.7,15.6,45,0.00,,CLR,0.00,VWS V14.01,2013-03-17 18:49:00,
2013-03-17 14:54:00,74.0,50.7,29.84,South,186,9.1,18.2,44,0.00,,CLR,0.00,VWS V14.01,2013-03-17 18:54:00,
2013-03-17 14:59:00,74.1,50.2,29.83,SW,236,5.2,10.4,43,0.00,,CLR,0.00,VWS V14.01,2013-03-17 18:59:00,
2013-03-17 15:04:00,73.7,51.1,29.83,SW,230,7.8,13.0,45,0.00,,CLR,0.00,VWS V14.01,2013-03-17 19:04:00,
2013-03-17 15:09:00,73.7,51.1,29.83,SW,228,2.6,13.0,45,0.00,,CLR,0.00,VWS V14.01,2013-03-17 19:09:00,
2013-03-17 15:14:00,73.3,51.3,29.83,SSE,159,9.1,16.9,46,0.00,,CLR,0.00,VWS V14.01,2013-03-17 19:14:00,
2013-03-17 15:19:00,72.8,50.8,29.83,South,172,9.1,20.8,46,0.00,,CLR,0.00,VWS V14.01,2013-03-17 19:19:00,
2013-03-17 15:24:00,72.8,51.4,29.83,SSW,195,7.8,13.0,47,0.00,,CLR,0.00,VWS V14.01,2013-03-17 19:24:00,
2013-03-17 15:29:00,72.8,51.4,29.83,WSW,246,9.1,14.3,47,0.00,,CLR,0.00,VWS V14.01,2013-03-17 19:29:00,
2013-03-17 15:35:00,72.7,51.9,29.84,West,267,9.1,15.6,48,0.00,,CLR,0.00,VWS V14.01,2013-03-17 19:35:00,
2013-03-17 15:40:00,72.4,52.2,29.83,South,181,2.6,11.7,49,0.00,,CLR,0.00,VWS V14.01,2013-03-17 19:40:00,
2013-03-17 15:45:00,72.1,51.3,29.83,South,174,1.3,14.3,48,0.00,,CLR,0.00,VWS V14.01,2013-03-17 19:45:00,
2013-03-17 15:50:00,71.9,51.7,29.83,WSW,258,14.3,14.3,49,0.00,,CLR,0.00,VWS V14.01,2013-03-17 19:50:00,
2013-03-17 15:55:00,71.7,52.1,29.83,South,181,6.5,11.7,50,0.00,,CLR,0.00,VWS V14.01,2013-03-17 19:55:00,
2013-03-17 16:00:00,71.7,51.5,29.83,East,96,5.2,13.0,49,0.00,,CLR,0.00,VWS V14.01,2013-03-17 20:00:00,
2013-03-17 16:05:00,71.6,51.5,29.83,SSE,155,2.6,13.0,49,0.00,,CLR,0.00,VWS V14.01,2013-03-17 20:05:00,
2013-03-17 16:10:00,71.7,51.5,29.83,SSW,196,3.9,9.1,49,0.00,,CLR,0.00,VWS V14.01,2013-03-17 20:10:00,
2013-03-17 16:15:00,71.9,51.2,29.83,West,261,14.3,15.6,48,0.00,,CLR,0.00,VWS V14.01,2013-03-17 20:15:00,
2013-03-17 16:21:00,71.8,50.5,29.84,WSW,237,13.0,14.3,47,0.00,,CLR,0.00,VWS V14.01,2013-03-17 20:21:00,
2013-03-17 16:26:00,71.9,50.6,29.84,SSW,202,16.9,16.9,47,0.00,,CLR,0.00,VWS V14.01,2013-03-17 20:26:00,
2013-03-17 16:31:00,71.8,50.5,29.84,SSW,212,3.9,10.4,47,0.00,,CLR,0.00,VWS V14.01,2013-03-17 20:31:00,
2013-03-17 16:36:00,71.9,50.6,29.84,SSE,147,1.3,13.0,47,0.00,,CLR,0.00,VWS V14.01,2013-03-17 20:36:00,
2013-03-17 16:41:00,72.2,51.4,29.84,WSW,242,10.4,13.0,48,0.00,,CLR,0.00,VWS V14.01,2013-03-17 20:41:00,
2013-03-17 16:47:00,72.3,50.4,29.84,South,190,13.0,14.3,46,0.00,,CLR,0.00,VWS V14.01,2013-03-17 20:47:00,
2013-03-17 16:52:00,72.3,50.4,29.84,SW,227,5.2,13.0,46,0.00,,CLR,0.00,VWS V14.01,2013-03-17 20:52:00,
2013-03-17 16:57:00,72.6,50.7,29.84,West,261,13.0,16.9,46,0.00,,CLR,0.00,VWS V14.01,2013-03-17 20:57:00,
2013-03-17 17:03:00,72.4,49.9,29.84,SW,227,6.5,11.7,45,0.00,,CLR,0.00,VWS V14.01,2013-03-17 21:03:00,
2013-03-17 17:08:00,72.2,50.3,29.84,SSW,196,7.8,19.5,46,0.00,,CLR,0.00,VWS V14.01,2013-03-17 21:08:00,
2013-03-17 17:13:00,72.1,50.2,29.84,SW,232,6.5,16.9,46,0.00,,CLR,0.00,VWS V14.01,2013-03-17 21:13:00,
2013-03-17 17:18:00,72.1,50.2,29.84,SSW,209,9.1,18.2,46,0.00,,CLR,0.00,VWS V14.01,2013-03-17 21:18:00,
2013-03-17 17:23:00,71.8,50.5,29.83,SW,234,2.6,11.7,47,0.00,,CLR,0.00,VWS V14.01,2013-03-17 21:23:00,
2013-03-17 17:28:00,71.8,50.5,29.83,West,267,11.7,13.0,47,0.00,,CLR,0.00,VWS V14.01,2013-03-17 21:28:00,
2013-03-17 17:34:00,71.9,50.0,29.84,WSW,252,6.5,11.7,46,0.00,,CLR,0.00,VWS V14.01,2013-03-17 21:34:00,
2013-03-17 17:39:00,72.0,49.5,29.84,West,261,3.9,13.0,45,0.00,,CLR,0.00,VWS V14.01,2013-03-17 21:39:00,
2013-03-17 17:44:00,72.3,50.4,29.84,SSW,205,5.2,10.4,46,0.00,,CLR,0.00,VWS V14.01,2013-03-17 21:44:00,
2013-03-17 17:49:00,72.1,50.2,29.84,WSW,239,6.5,13.0,46,0.00,,CLR,0.00,VWS V14.01,2013-03-17 21:49:00,
2013-03-17 17:54:00,71.9,50.6,29.84,SSW,194,3.9,11.7,47,0.00,,CLR,0.00,VWS V14.01,2013-03-17 21:54:00,
2013-03-17 17:59:00,71.6,50.9,29.84,SSE,164,9.1,11.7,48,0.00,,CLR,0.00,VWS V14.01,2013-03-17 21:59:00,
2013-03-17 18:04:00,71.3,51.2,29.84,SSW,200,3.9,9.1,49,0.00,,CLR,0.00,VWS V14.01,2013-03-17 22:04:00,
2013-03-17 18:09:00,71.1,50.4,29.84,West,261,2.6,15.6,48,0.00,,CLR,0.00,VWS V14.01,2013-03-17 22:09:00,
2013-03-17 18:14:00,71.0,50.9,29.84,SW,232,3.9,7.8,49,0.00,,CLR,0.00,VWS V14.01,2013-03-17 22:14:00,
2013-03-17 18:20:00,71.0,50.9,29.84,WSW,252,6.5,10.4,49,0.00,,CLR,0.00,VWS V14.01,2013-03-17 22:20:00,
2013-03-17 18:25:00,70.7,50.6,29.85,South,185,3.9,9.1,49,0.00,,CLR,0.00,VWS V14.01,2013-03-17 22:25:00,
2013-03-17 18:30:00,70.6,51.1,29.85,West,269,7.8,10.4,50,0.00,,CLR,0.00,VWS V14.01,2013-03-17 22:30:00,
2013-03-17 18:35:00,70.4,50.9,29.85,West,269,3.9,6.5,50,0.00,,CLR,0.00,VWS V14.01,2013-03-17 22:35:00,
2013-03-17 18:40:00,70.3,51.3,29.85,SW,230,6.5,13.0,51,0.00,,CLR,0.00,VWS V14.01,2013-03-17 22:40:00,
2013-03-17 18:45:00,70.2,51.2,29.85,WSW,244,9.1,10.4,51,0.00,,CLR,0.00,VWS V14.01,2013-03-17 22:45:00,
2013-03-17 18:50:00,70.0,51.1,29.85,SW,219,5.2,10.4,51,0.00,,CLR,0.00,VWS V14.01,2013-03-17 22:50:00,
2013-03-17 18:55:00,69.8,51.4,29.85,SW,224,5.2,13.0,52,0.00,,CLR,0.00,VWS V14.01,2013-03-17 22:55:00,
2013-03-17 19:00:00,69.7,51.3,29.85,SSW,203,2.6,7.8,52,0.00,,CLR,0.00,VWS V14.01,2013-03-17 23:00:00,
2013-03-17 19:05:00,69.6,51.7,29.85,SSW,200,5.2,6.5,53,0.00,,CLR,0.00,VWS V14.01,2013-03-17 23:05:00,
2013-03-17 19:10:00,69.4,52.0,29.85,SSW,198,3.9,10.4,54,0.00,,CLR,0.00,VWS V14.01,2013-03-17 23:10:00,
2013-03-17 19:15:00,69.3,52.0,29.86,SW,225,6.5,7.8,54,0.00,,CLR,0.00,VWS V14.01,2013-03-17 23:15:00,
2013-03-17 19:20:00,69.1,52.3,29.86,WSW,247,3.9,10.4,55,0.00,,CLR,0.00,VWS V14.01,2013-03-17 23:20:00,
2013-03-17 19:26:00,69.0,52.2,29.86,SSW,209,3.9,11.7,55,0.00,,CLR,0.00,VWS V14.01,2013-03-17 23:26:00,
2013-03-17 19:31:00,68.9,52.1,29.87,West,270,9.1,9.1,55,0.00,,CLR,0.00,VWS V14.01,2013-03-17 23:31:00,
2013-03-17 19:36:00,68.8,52.0,29.87,SSW,211,2.6,11.7,55,0.00,,CLR,0.00,VWS V14.01,2013-03-17 23:36:00,
2013-03-17 19:41:00,68.7,52.4,29.87,South,182,5.2,7.8,56,0.00,,CLR,0.00,VWS V14.01,2013-03-17 23:41:00,
2013-03-17 19:47:00,68.5,52.2,29.87,South,181,1.3,5.2,56,0.00,,CLR,0.00,VWS V14.01,2013-03-17 23:47:00,
2013-03-17 19:52:00,68.3,52.0,29.88,SSW,209,5.2,5.2,56,0.00,,CLR,0.00,VWS V14.01,2013-03-17 23:52:00,
2013-03-17 19:57:00,68.2,51.9,29.88,SW,220,6.5,6.5,56,0.00,,CLR,0.00,VWS V14.01,2013-03-17 23:57:00,
2013-03-17 20:02:00,68.1,51.8,29.88,SSW,204,1.3,7.8,56,0.00,,CLR,0.00,VWS V14.01,2013-03-18 00:02:00,
2013-03-17 20:07:00,68.1,51.8,29.88,South,177,3.9,6.5,56,0.00,,CLR,0.00,VWS V14.01,2013-03-18 00:07:00,
2013-03-17 20:12:00,68.0,51.7,29.88,SSW,194,1.3,3.9,56,0.00,,CLR,0.00,VWS V14.01,2013-03-18 00:12:00,
2013-03-17 20:17:00,67.8,52.0,29.88,SSW,194,1.3,5.2,57,0.00,,CLR,0.00,VWS V14.01,2013-03-18 00:17:00,
2013-03-17 20:22:00,67.6,51.8,29.88,SSW,194,0.0,2.6,57,0.00,,CLR,0.00,VWS V14.01,2013-03-18 00:22:00,
2013-03-17 20:27:00,67.3,52.0,29.88,SSW,194,0.0,3.9,58,0.00,,CLR,0.00,VWS V14.01,2013-03-18 00:27:00,
2013-03-17 20:32:00,67.2,51.9,29.89,SSW,194,2.6,5.2,58,0.00,,CLR,0.00,VWS V14.01,2013-03-18 00:32:00,
2013-03-17 20:37:00,67.1,52.8,29.89,SE,142,0.0,5.2,60,0.00,,CLR,0.00,VWS V14.01,2013-03-18 00:37:00,
2013-03-17 20:42:00,67.0,53.1,29.89,South,182,1.3,3.9,61,0.00,,CLR,0.00,VWS V14.01,2013-03-18 00:42:00,
2013-03-17 20:48:00,66.9,53.5,29.89,South,176,1.3,7.8,62,0.00,,CLR,0.00,VWS V14.01,2013-03-18 00:48:00,
2013-03-17 20:53:00,66.6,53.6,29.89,SSW,211,2.6,5.2,63,0.00,,CLR,0.00,VWS V14.01,2013-03-18 00:53:00,
2013-03-17 20:58:00,66.5,53.5,29.90,SW,233,2.6,5.2,63,0.00,,CLR,0.00,VWS V14.01,2013-03-18 00:58:00,
2013-03-17 21:03:00,66.4,53.9,29.90,SSE,156,1.3,6.5,64,0.00,,CLR,0.00,VWS V14.01,2013-03-18 01:03:00,
2013-03-17 21:08:00,66.3,53.8,29.90,SW,224,1.3,5.2,64,0.00,,CLR,0.00,VWS V14.01,2013-03-18 01:08:00,
2013-03-17 21:13:00,66.2,53.7,29.91,South,173,3.9,10.4,64,0.00,,CLR,0.00,VWS V14.01,2013-03-18 01:13:00,
2013-03-17 21:18:00,66.1,53.6,29.91,SSW,194,3.9,7.8,64,0.00,,CLR,0.00,VWS V14.01,2013-03-18 01:18:00,
2013-03-17 21:23:00,66.0,53.5,29.91,SSW,206,3.9,9.1,64,0.00,,CLR,0.00,VWS V14.01,2013-03-18 01:23:00,
2013-03-17 21:28:00,65.9,53.8,29.92,ESE,113,1.3,3.9,65,0.00,,CLR,0.00,VWS V14.01,2013-03-18 01:28:00,
2013-03-17 21:33:00,65.8,53.7,29.92,WSW,254,1.3,2.6,65,0.00,,CLR,0.00,VWS V14.01,2013-03-18 01:33:00,
2013-03-17 21:38:00,65.6,53.5,29.93,East,85,5.2,5.2,65,0.00,,CLR,0.00,VWS V14.01,2013-03-18 01:38:00,
2013-03-17 21:43:00,64.0,52.0,29.94,ESE,103,5.2,10.4,65,0.00,,CLR,0.00,VWS V14.01,2013-03-18 01:43:00,
2013-03-17 21:48:00,62.4,51.7,29.94,ENE,60,2.6,10.4,68,0.00,,CLR,0.00,VWS V14.01,2013-03-18 01:48:00,
2013-03-17 21:53:00,61.3,51.5,29.95,North,5,10.4,19.5,70,0.00,,CLR,0.00,VWS V14.01,2013-03-18 01:53:00,
2013-03-17 21:58:00,60.1,50.3,29.95,ENE,65,5.2,10.4,70,0.00,,CLR,0.00,VWS V14.01,2013-03-18 01:58:00,
2013-03-17 22:03:00,59.2,49.8,29.96,East,80,5.2,14.3,71,0.00,,BKN048,0.00,VWS V14.01,2013-03-18 02:03:00,
2013-03-17 22:08:00,58.4,49.0,29.97,NE,54,5.2,11.7,71,0.00,,BKN048,0.00,VWS V14.01,2013-03-18 02:08:00,
2013-03-17 22:14:00,57.7,48.4,29.97,NNE,28,7.8,14.3,71,0.00,,BKN048,0.00,VWS V14.01,2013-03-18 02:14:00,
2013-03-17 22:19:00,56.8,47.9,29.97,NNE,32,7.8,13.0,72,0.00,,BKN048,0.00,VWS V14.01,2013-03-18 02:19:00,
2013-03-17 22:24:00,56.3,47.4,29.98,East,94,5.2,10.4,72,0.00,,BKN048,0.00,VWS V14.01,2013-03-18 02:24:00,
2013-03-17 22:29:00,55.8,47.3,29.98,East,91,3.9,10.4,73,0.00,,BKN048,0.00,VWS V14.01,2013-03-18 02:29:00,
2013-03-17 22:34:00,55.4,46.9,29.98,East,88,5.2,14.3,73,0.00,,BKN048,0.00,VWS V14.01,2013-03-18 02:34:00,
2013-03-17 22:39:00,54.9,46.4,29.99,NNW,345,5.2,13.0,73,0.00,,BKN048,0.00,VWS V14.01,2013-03-18 02:39:00,
2013-03-17 22:44:00,54.4,46.3,29.99,North,355,5.2,13.0,74,0.00,,BKN048,0.00,VWS V14.01,2013-03-18 02:44:00,
2013-03-17 22:49:00,53.7,45.6,29.99,ENE,71,2.6,14.3,74,0.00,,BKN048,0.00,VWS V14.01,2013-03-18 02:49:00,
2013-03-17 22:54:00,53.4,45.7,29.99,NE,51,5.2,16.9,75,0.00,,BKN048,0.00,VWS V14.01,2013-03-18 02:54:00,
2013-03-17 22:59:00,52.9,45.2,30.00,SE,131,5.2,7.8,75,0.00,,BKN048,0.00,VWS V14.01,2013-03-18 02:59:00,
2013-03-17 23:04:00,52.3,44.6,30.00,ENE,68,1.3,11.7,75,0.00,,SCT065,0.00,VWS V14.01,2013-03-18 03:04:00,
2013-03-17 23:09:00,51.9,44.2,30.00,East,93,5.2,11.7,75,0.00,,SCT065,0.00,VWS V14.01,2013-03-18 03:09:00,
2013-03-17 23:14:00,51.5,43.8,30.00,East,98,0.0,20.8,75,0.00,,SCT065,0.00,VWS V14.01,2013-03-18 03:14:00,
2013-03-17 23:19:00,51.1,43.8,30.01,East,89,9.1,18.2,76,0.00,,SCT065,0.00,VWS V14.01,2013-03-18 03:19:00,
2013-03-17 23:25:00,50.7,43.4,30.01,East,96,5.2,14.3,76,0.00,,SCT065,0.00,VWS V14.01,2013-03-18 03:25:00,
2013-03-17 23:30:00,50.4,43.5,30.01,NNE,24,2.6,9.1,77,0.00,,SCT065,0.00,VWS V14.01,2013-03-18 03:30:00,
2013-03-17 23:35:00,50.1,43.2,30.01,NE,38,0.0,7.8,77,0.00,,SCT065,0.00,VWS V14.01,2013-03-18 03:35:00,
2013-03-17 23:40:00,49.9,43.0,30.01,ENE,72,5.2,13.0,77,0.00,,SCT065,0.00,VWS V14.01,2013-03-18 03:40:00,
2013-03-17 23:45:00,49.8,42.9,30.01,ENE,69,6.5,11.7,77,0.00,,SCT065,0.00,VWS V14.01,2013-03-18 03:45:00,
2013-03-17 23:50:00,49.7,42.8,30.01,ENE,75,2.6,9.1,77,0.00,,SCT065,0.00,VWS V14.01,2013-03-18 03:50:00,
2013-03-17 23:55:00,49.6,42.7,30.02,East,80,2.6,14.3,77,0.00,,SCT065,0.00,VWS V14.01,2013-03-18 03:55:00,